Wind_Speed
12 13 13 13 12 12 12 12 12 12 12 13 13 12 13 13 14 14 14 15 15 15 15 15 15 15 15 15 15 16 16 17 17 17 18 18 19 19 20 20 20 20 21
13 14 14 13 13 13 13 13 13 13 13 13 14 14 14 14 14 14 15 15 15 15 15 15 15 15 15 15 16 17 17 18 18 18 19 20 20 21 22 22 22 22 22
14 14 14 13 13 13 13 14 14 14 14 15 15 15 15 15 15 16 16 16 17 17 17 17 17 17 17 17 17 18 19 19 20 20 21 21 22 23 23 24 24 24 25
14 15 15 14 14 15 15 15 16 16 16 16 16 16 16 16 17 17 17 17 18 18 18 18 18 18 18 19 19 20 21 21 21 22 22 23 24 24 25 25 25 26 27
15 15 15 16 16 16 16 16 17 17 17 17 17 17 17 17 17 17 18 18 19 19 18 19 19 19 20 20 21 21 22 22 23 23 24 25 25 25 26 26 27 28 28
16 16 16 17 17 17 17 17 17 17 17 17 17 18 18 18 18 19 19 19 19 20 20 20 20 21 21 21 22 23 23 24 24 24 25 25 26 27 27 28 29 29 30
16 16 16 17 17 17 17 17 18 18 18 19 19 19 19 19 19 19 19 19 20 20 21 22 22 22 23 23 24 25 25 25 26 26 26 27 27 28 29 30 30 31 31
16 16 17 17 17 17 17 18 18 19 19 19 19 19 19 19 19 19 20 20 21 21 22 23 24 24 24 25 26 26 26 27 27 28 29 29 29 30 31 32 33 33 34
17 17 18 18 18 18 18 19 19 19 19 19 19 19 20 20 20 21 21 22 22 23 23 24 25 26 27 27 28 28 28 29 30 30 31 31 32 33 34 35 35 36 36
17 18 19 19 19 19 19 19 19 19 19 19 19 20 20 20 21 22 22 23 23 24 25 26 27 28 29 29 29 30 30 31 32 32 33 34 35 35 36 37 37 38 39
17 18 19 19 19 19 19 19 19 19 20 20 20 21 21 22 22 23 24 25 26 26 27 28 28 28 29 29 30 31 32 33 34 35 35 36 37 38 38 39 40 40 41
18 19 19 20 19 19 20 20 20 20 21 21 22 23 23 23 24 25 26 27 27 28 29 30 30 30 30 31 32 33 34 35 36 37 38 39 39 40 40 41 42 43 43
20 20 21 21 21 21 21 22 22 22 22 23 23 24 24 24 25 26 27 28 29 30 31 31 32 33 33 34 35 36 36 37 38 39 40 41 41 42 43 43 44 44 45
22 22 22 22 22 22 23 23 24 24 24 24 24 25 25 26 27 28 29 30 31 32 32 33 34 34 35 36 36 38 38 39 39 40 41 42 42 43 44 45 46 46 46
24 24 24 23 23 23 24 24 25 25 25 26 26 26 27 28 29 31 32 32 33 34 34 35 35 36 37 38 38 39 40 40 41 41 42 42 43 44 45 46 47 47 47
24 24 24 24 24 24 25 26 26 27 27 28 28 29 30 31 32 33 34 35 36 36 36 36 37 38 39 39 40 41 41 42 42 43 44 44 45 45 46 47 47 48 47
25 25 25 26 26 26 27 28 29 29 30 30 31 32 33 33 34 35 36 37 37 38 38 38 39 40 41 41 41 42 42 42 43 44 45 45 46 47 47 47 48 48 47
26 27 28 29 29 29 29 30 31 32 33 33 33 34 35 36 36 37 38 38 38 39 39 39 40 41 41 42 42 43 44 44 45 45 46 46 47 47 48 47 47 47 47
28 29 29 30 31 31 32 33 33 34 34 35 35 36 37 38 38 39 40 40 40 40 41 41 42 42 42 43 43 44 45 46 46 47 47 47 47 48 48 47 47 47 47
30 30 31 31 32 33 33 33 34 35 35 36 37 37 38 39 40 40 40 41 41 42 42 42 42 43 43 43 44 45 46 46 47 47 47 48 48 48 48 47 47 47 47
31 31 32 32 32 33 33 34 34 35 36 37 38 39 39 40 40 41 41 41 41 42 41 42 42 43 43 43 44 45 45 46 47 47 47 47 47 47 47 47 47 47 46
32 32 32 32 32 33 34 35 35 36 37 38 39 40 40 41 41 40 41 41 41 41 41 41 42 43 43 44 45 46 45 46 46 46 47 47 47 46 46 46 46 46 46
32 32 32 33 34 34 35 36 36 37 38 39 39 40 40 41 41 41 41 41 41 41 41 42 43 43 43 44 45 45 46 46 46 45 45 45 45 45 45 45 45 45 45
32 32 33 34 35 36 36 36 37 38 39 40 40 40 40 41 41 41 41 41 41 41 41 41 42 43 43 44 44 45 45 45 45 45 45 44 44 44 44 44 44 44 44
32 33 34 35 36 36 36 37 38 39 39 40 41 41 41 41 41 41 41 41 41 41 41 42 42 42 43 43 43 44 44 43 43 43 43 42 43 43 43 43 42 42 42
34 34 34 34 35 36 36 37 38 39 39 40 41 41 41 41 41 41 41 41 41 42 42 42 42 42 42 43 43 42 42 42 42 41 41 41 41 41 41 41 40 40 40
Wind_Direction
253 255 255 255 256 257 264 267 271 276 277 276 279 283 284 286 289 291 292 294 295 295 295 297 298 298 297 298 297 296 295 295 294 295 295 295 295 295 296 296 296 295 292
254 255 255 256 257 261 264 268 271 272 274 278 280 282 284 287 289 291 292 294 293 293 294 295 296 298 298 298 298 297 297 296 294 294 294 294 294 294 294 295 295 294 293
255 255 254 256 259 263 265 267 270 271 274 278 280 282 284 286 288 290 291 292 292 290 291 291 293 293 294 295 296 296 296 295 295 294 295 294 293 293 294 294 293 293 293
254 254 255 258 261 264 265 266 268 272 275 278 280 282 283 285 288 289 289 290 290 289 289 290 291 292 292 293 294 295 295 294 295 295 295 294 294 293 294 294 293 292 292
255 256 258 261 264 265 266 268 270 274 276 277 279 281 283 284 286 287 288 288 289 289 290 290 290 291 291 291 293 294 295 295 295 294 294 295 294 294 294 294 294 293 292
258 258 259 263 266 267 269 271 272 273 275 277 279 282 283 284 286 288 288 287 288 289 288 289 290 289 289 290 292 293 295 295 295 295 295 296 295 294 294 295 295 294 293
261 262 262 265 267 267 269 271 272 273 274 276 278 281 283 284 285 287 289 288 288 289 290 290 290 289 291 291 292 292 293 293 295 296 296 296 296 294 294 295 295 294 293
262 263 265 269 270 272 271 272 274 274 275 278 279 280 282 284 285 286 289 290 290 290 291 291 290 290 290 291 292 292 292 294 294 295 296 296 295 294 294 295 294 293 293
263 265 268 269 271 274 274 274 275 276 276 277 279 280 281 283 285 286 288 290 291 291 291 291 291 290 289 290 291 291 292 293 294 295 296 296 297 296 295 294 294 293 293
265 267 268 269 271 273 274 275 276 277 277 277 279 281 282 283 284 287 289 290 291 291 291 292 292 291 291 290 291 292 293 293 294 295 295 295 296 296 296 295 294 293 293
266 267 268 270 271 272 273 276 277 277 278 279 280 280 282 283 284 286 289 290 291 292 292 292 293 292 292 292 293 293 293 293 294 294 294 295 296 296 296 296 295 295 294
267 268 269 270 270 270 272 275 277 279 280 281 283 282 281 282 284 287 289 290 291 291 292 292 293 293 292 292 293 293 293 293 294 295 295 295 295 295 296 296 295 295 295
268 269 270 270 270 271 272 275 278 279 281 283 284 284 284 285 287 289 291 291 292 291 291 292 292 293 293 293 292 293 293 294 294 295 295 295 295 295 295 295 295 294 294
269 271 270 270 271 271 274 277 279 281 282 283 284 285 287 288 289 290 291 292 292 291 291 292 293 294 294 293 293 293 294 295 296 296 295 295 295 294 294 294 295 294 293
272 272 273 274 273 273 276 278 280 282 284 285 286 287 288 289 289 290 291 292 292 293 293 293 293 294 294 294 294 295 295 296 296 296 296 296 296 296 295 295 295 294 294
274 274 275 276 276 277 279 280 282 283 285 286 287 288 289 290 291 291 291 292 292 292 292 293 294 294 295 295 295 295 295 295 296 297 297 296 296 296 297 296 296 296 296
272 272 273 276 278 279 280 282 283 283 284 285 286 287 289 290 291 292 293 293 293 293 293 293 294 294 295 295 295 296 296 296 296 297 297 297 297 297 298 298 298 297 297
273 274 275 277 279 281 282 283 284 285 286 287 288 289 290 290 291 292 293 294 293 293 293 293 294 295 295 295 295 295 296 297 297 297 297 298 298 298 299 299 298 298 298
276 277 278 280 280 282 283 284 286 287 288 288 289 290 291 292 293 293 293 293 293 293 293 293 294 295 295 295 295 296 296 297 297 297 297 298 298 298 299 298 298 297 298
277 279 280 281 282 283 284 285 286 288 289 290 290 291 292 292 292 293 293 293 294 294 294 295 296 296 296 296 296 297 298 298 298 298 298 298 297 298 298 298 297 297 298
279 280 281 281 282 284 285 286 287 289 290 290 291 292 292 292 293 293 293 293 293 294 294 295 296 296 296 296 297 298 298 298 298 298 298 298 298 298 298 298 297 297 298
279 280 280 281 282 283 285 287 288 290 291 292 292 292 292 293 294 295 294 294 293 294 294 295 296 296 297 297 298 298 298 299 299 298 298 299 299 299 299 299 298 298 298
279 280 281 281 282 284 285 286 288 289 291 292 292 292 293 293 295 296 296 295 295 296 296 297 298 298 298 299 300 300 300 300 300 300 300 299 299 299 300 300 299 299 300
280 280 282 283 283 284 286 287 288 289 291 291 292 292 293 294 295 296 297 297 296 296 297 298 299 299 299 301 301 301 301 301 301 301 301 300 300 301 301 301 300 301 301
280 281 282 283 285 286 286 288 289 291 292 292 292 293 293 294 295 296 297 297 297 297 298 299 299 300 300 300 301 302 303 303 303 303 302 302 302 302 302 302 301 301 302
282 283 284 285 286 288 289 290 291 292 293 293 293 294 294 295 296 296 296 296 297 297 298 299 299 300 300 301 302 303 303 303 304 304 303 303 302 302 303 303 303 303 303
Height
5865 5865 5866 5866 5866 5867 5867 5867 5866 5866 5866 5865 5865 5864 5863 5863 5862 5861 5859 5858 5857 5856 5854 5853 5851 5850 5848 5846 5845 5843 5841 5840 5838 5836 5834 5832 5831 5829 5827 5825 5823 5821 5819
5862 5862 5862 5863 5863 5863 5863 5863 5863 5863 5862 5862 5861 5860 5860 5859 5858 5857 5855 5854 5853 5852 5850 5849 5847 5846 5844 5842 5841 5839 5837 5835 5834 5832 5830 5828 5826 5824 5822 5820 5818 5816 5814
5858 5858 5859 5859 5859 5859 5859 5859 5859 5859 5858 5858 5857 5856 5855 5854 5853 5852 5851 5850 5849 5847 5846 5845 5843 5841 5840 5838 5836 5834 5833 5831 5829 5827 5825 5822 5820 5818 5816 5814 5812 5810 5808
5854 5855 5855 5855 5855 5855 5855 5855 5855 5855 5854 5853 5853 5852 5851 5850 5849 5848 5847 5845 5844 5843 5841 5840 5838 5836 5835 5833 5831 5829 5827 5825 5823 5821 5819 5817 5814 5812 5810 5808 5806 5804 5801
5850 5851 5851 5851 5851 5851 5851 5851 5851 5850 5850 5849 5848 5847 5846 5845 5844 5843 5842 5840 5839 5838 5836 5835 5833 5831 5829 5828 5826 5824 5822 5819 5817 5815 5813 5810 5808 5806 5804 5801 5799 5797 5794
5846 5846 5847 5847 5847 5847 5847 5846 5846 5846 5845 5844 5844 5843 5842 5840 5839 5838 5837 5835 5834 5832 5831 5829 5827 5826 5824 5822 5820 5818 5816 5813 5811 5809 5806 5804 5801 5799 5796 5794 5791 5788 5786
5842 5842 5842 5842 5842 5842 5842 5841 5841 5841 5840 5839 5838 5837 5836 5835 5834 5833 5831 5830 5828 5826 5825 5823 5821 5819 5818 5816 5813 5811 5809 5807 5804 5802 5799 5797 5794 5791 5789 5786 5783 5780 5777
5837 5837 5838 5838 5837 5837 5837 5836 5836 5835 5834 5833 5832 5831 5830 5829 5828 5827 5826 5824 5822 5821 5819 5817 5815 5813 5811 5809 5806 5804 5802 5799 5797 5794 5792 5789 5786 5783 5780 5777 5774 5771 5768
5832 5833 5833 5833 5832 5832 5831 5831 5830 5829 5828 5828 5827 5826 5825 5824 5823 5821 5820 5818 5816 5814 5812 5810 5808 5806 5804 5801 5799 5797 5794 5792 5789 5786 5783 5780 5777 5774 5771 5767 5764 5761 5758
5827 5827 5827 5827 5827 5826 5826 5825 5824 5824 5823 5822 5821 5820 5819 5818 5817 5815 5814 5812 5810 5808 5805 5803 5801 5798 5796 5793 5791 5788 5786 5783 5780 5777 5774 5771 5768 5764 5761 5757 5753 5750 5746
5822 5822 5822 5822 5821 5821 5820 5820 5819 5818 5817 5816 5815 5814 5813 5812 5810 5809 5807 5805 5803 5800 5798 5795 5793 5790 5788 5785 5782 5780 5777 5774 5771 5767 5764 5761 5757 5753 5750 5746 5742 5738 5734
5816 5816 5816 5816 5816 5815 5815 5814 5813 5812 5811 5810 5809 5807 5806 5805 5803 5801 5799 5797 5795 5792 5790 5787 5784 5782 5779 5776 5773 5770 5767 5764 5760 5757 5753 5750 5746 5742 5738 5734 5730 5726 5721
5811 5810 5810 5810 5809 5809 5808 5808 5807 5806 5805 5803 5802 5800 5799 5797 5795 5793 5791 5789 5786 5784 5781 5778 5775 5772 5770 5766 5763 5760 5756 5753 5749 5746 5742 5738 5734 5730 5726 5722 5717 5713 5708
5804 5804 5803 5803 5803 5802 5802 5801 5800 5799 5798 5796 5794 5793 5791 5789 5787 5785 5783 5780 5777 5775 5772 5769 5766 5762 5759 5756 5752 5749 5745 5742 5738 5734 5730 5726 5721 5717 5713 5708 5704 5699 5695
5798 5797 5797 5796 5796 5795 5795 5794 5793 5792 5790 5789 5787 5785 5783 5781 5779 5776 5774 5771 5768 5765 5762 5759 5755 5752 5749 5745 5741 5737 5734 5730 5726 5722 5717 5713 5708 5704 5699 5694 5689 5685 5680
5791 5790 5790 5789 5789 5788 5787 5786 5784 5783 5782 5780 5778 5776 5774 5772 5769 5767 5764 5761 5758 5754 5751 5748 5744 5741 5737 5733 5729 5726 5722 5717 5713 5709 5704 5700 5695 5690 5685 5680 5675 5670 5665
5783 5783 5782 5781 5781 5780 5778 5777 5776 5775 5773 5771 5769 5767 5765 5762 5759 5756 5753 5750 5746 5743 5740 5737 5733 5729 5725 5721 5717 5713 5709 5705 5700 5696 5691 5686 5681 5676 5671 5666 5661 5656 5651
5775 5774 5774 5773 5772 5771 5770 5768 5767 5765 5764 5761 5759 5757 5754 5751 5748 5745 5742 5739 5735 5731 5728 5724 5721 5717 5713 5709 5704 5700 5696 5691 5687 5682 5677 5673 5668 5663 5658 5652 5647 5642 5637
5766 5766 5764 5763 5762 5761 5760 5759 5757 5755 5753 5751 5748 5746 5743 5740 5737 5734 5730 5727 5723 5719 5715 5712 5708 5704 5700 5696 5691 5687 5683 5678 5673 5668 5663 5658 5653 5648 5643 5638 5633 5628 5623
5757 5756 5755 5753 5752 5751 5749 5748 5746 5744 5742 5739 5737 5734 5731 5728 5725 5721 5718 5714 5710 5706 5702 5699 5695 5691 5687 5682 5678 5674 5669 5664 5659 5654 5649 5644 5639 5634 5629 5624 5619 5614 5609
5746 5745 5744 5743 5742 5740 5739 5737 5735 5733 5730 5728 5725 5721 5718 5715 5712 5708 5704 5701 5697 5693 5690 5686 5682 5678 5674 5669 5665 5660 5655 5650 5645 5640 5635 5630 5624 5620 5615 5610 5605 5600 5595
5735 5734 5733 5732 5731 5729 5728 5726 5723 5721 5718 5716 5713 5709 5706 5702 5699 5695 5691 5688 5684 5680 5677 5673 5669 5664 5660 5656 5651 5646 5641 5636 5631 5626 5621 5616 5610 5605 5600 5595 5590 5586 5581
5725 5723 5722 5721 5720 5718 5716 5714 5712 5709 5706 5703 5700 5697 5693 5690 5686 5683 5679 5675 5671 5668 5664 5660 5656 5651 5647 5642 5637 5632 5627 5622 5617 5612 5607 5602 5597 5592 5587 5582 5577 5572 5567
5714 5713 5712 5710 5708 5707 5705 5702 5700 5697 5694 5691 5688 5684 5681 5677 5674 5670 5666 5662 5659 5655 5651 5647 5643 5638 5634 5629 5624 5619 5614 5609 5603 5598 5593 5589 5584 5579 5574 5569 5564 5559 5554
5704 5702 5701 5699 5697 5695 5693 5691 5688 5686 5682 5679 5675 5672 5668 5665 5661 5657 5654 5650 5646 5642 5638 5634 5630 5625 5621 5616 5611 5606 5601 5596 5591 5586 5581 5576 5572 5567 5562 5557 5552 5547 5542
5693 5691 5689 5688 5686 5684 5682 5679 5676 5673 5670 5666 5663 5659 5656 5652 5648 5645 5641 5637 5633 5629 5625 5621 5617 5612 5608 5603 5598 5593 5589 5584 5578 5573 5569 5564 5560 5555 5550 5545 5540 5535 5530